Wind_Speed
43 41 45 49 46 44 39 41 49 50 53 53 49 48 48 35 32 33 32 33 34 36 37 39 40 36 32 30 27 29 31 29
45 48 46 50 46 43 43 48 50 56 56 54 55 51 44 30 29 32 33 35 38 38 37 38 38 36 32 32 29 33 33 32
46 46 47 46 44 40 44 52 54 55 55 55 52 50 37 29 30 29 35 35 38 37 38 35 35 34 33 31 31 33 34 34
44 46 45 41 41 43 50 52 53 56 57 55 47 38 31 31 32 31 35 38 38 38 37 33 35 35 35 36 35 38 36 35
44 48 48 41 41 47 50 49 55 56 52 48 41 38 33 33 34 36 40 31 37 37 36 35 35 37 36 39 36 37 37 35
42 40 45 45 46 48 49 54 58 52 49 43 41 41 37 35 28 35 35 33 37 34 36 36 38 39 37 36 38 37 36 36
41 43 46 48 48 50 51 53 52 48 45 42 44 42 39 36 29 28 36 37 38 34 37 37 36 42 43 35 36 36 37 37
46 50 49 51 52 53 48 47 46 47 43 47 47 45 41 39 30 31 36 35 35 33 36 35 36 39 37 38 36 35 36 34
45 47 47 46 48 42 41 45 47 47 47 49 47 43 36 33 28 33 34 34 33 35 33 35 33 33 35 34 33 35 33 31
42 45 41 40 42 43 45 45 45 48 47 42 38 32 31 31 30 32 32 31 35 34 35 33 36 37 32 31 32 33 31 30
39 41 40 40 40 41 41 42 45 44 40 33 33 30 31 31 27 29 30 30 32 36 31 35 37 31 30 31 31 30 29 29
33 34 36 33 34 37 38 39 39 37 36 33 28 26 24 26 28 28 26 32 32 29 33 35 30 28 30 29 27 27 26 27
31 32 30 28 31 34 35 33 33 34 30 23 22 22 21 24 24 23 28 31 28 29 32 27 27 29 29 24 25 24 23 26
25 23 23 29 29 29 28 29 30 27 23 21 22 20 21 21 22 25 27 27 28 29 25 25 27 27 24 22 23 20 25 23
20 21 25 26 24 21 22 22 21 20 20 20 20 19 20 23 25 25 24 26 23 23 24 26 24 21 21 20 20 18 21 19
19 22 22 21 17 17 17 15 19 17 16 18 18 19 22 26 24 23 22 21 19 21 23 20 19 19 18 17 16 18 18 15
22 18 18 15 17 18 14 11 16 16 17 16 17 20 22 22 20 18 18 16 17 19 18 17 17 17 15 12 13 17 14 12
19 14 13 16 19 17 14 14 17 15 15 16 18 19 17 15 15 15 16 15 16 14 14 15 15 13 10 10 12 14 11 8
14 11 15 17 13 13 13 12 13 14 14 15 14 13 13 12 14 14 13 14 11 9 11 11 9 10 8 9 10 10 8 5
16 17 17 12 10 8 8 10 11 11 9 7 10 11 12 13 14 13 12 12 7 8 9 7 7 7 7 9 10 10 6 4
Wind_Direction
279 278 275 277 287 291 292 305 305 298 300 303 306 308 312 304 289 287 287 289 297 302 306 309 308 302 304 308 309 315 316 309
277 274 269 276 280 283 284 292 296 295 295 298 302 304 306 292 285 280 284 288 295 294 297 303 302 300 303 308 312 313 312 309
279 270 272 278 280 278 281 284 287 288 289 295 300 301 293 284 278 285 282 291 293 294 292 296 295 299 300 308 309 315 313 312
272 268 270 273 273 272 276 277 281 283 286 291 295 289 284 277 276 281 289 293 294 289 286 291 289 289 293 297 305 310 311 310
265 262 260 265 266 266 269 275 277 281 286 289 287 282 284 281 273 286 292 294 292 286 282 285 283 282 284 296 297 308 308 307
259 257 258 263 264 267 269 271 276 283 286 285 281 277 286 288 277 284 284 289 285 282 284 285 285 288 288 290 301 303 305 305
258 260 261 262 263 266 267 272 277 276 278 278 278 282 284 293 283 273 284 297 290 283 286 288 292 293 301 299 303 304 304 303
253 253 259 262 262 265 272 273 269 271 271 272 272 277 280 284 284 276 285 285 282 277 281 289 290 294 298 300 300 302 301 298
257 258 259 259 262 264 262 261 264 272 271 274 279 280 274 275 274 278 281 281 272 273 287 288 293 299 296 295 300 300 297 297
256 254 257 258 257 256 258 265 269 270 272 275 276 275 273 268 271 273 278 271 267 275 288 290 294 296 294 298 302 297 298 299
260 259 253 251 252 255 261 268 267 273 277 281 281 278 276 273 265 266 265 265 271 280 284 287 292 291 296 302 298 295 296 297
259 254 250 251 258 264 261 262 269 278 285 287 279 273 271 268 260 263 263 263 274 278 284 288 288 294 299 299 295 293 296 300
244 244 253 257 258 259 264 270 280 285 290 281 274 266 269 267 264 262 263 272 271 281 283 285 292 296 297 293 292 298 301 305
248 252 252 251 261 265 274 278 282 283 275 267 264 266 263 265 273 269 274 277 278 282 286 289 292 292 288 289 296 299 306 310
246 249 250 259 268 274 275 270 263 261 261 263 262 261 273 281 276 272 269 275 282 283 285 288 289 284 286 293 294 299 313 320
240 245 255 266 260 259 261 254 253 251 260 260 265 272 277 276 278 279 281 279 277 283 286 290 286 286 289 288 291 304 312 315
229 247 264 256 255 257 248 261 258 260 265 271 277 278 277 278 280 275 273 279 286 285 287 285 290 286 283 293 299 308 310 307
236 245 256 253 258 249 247 253 261 266 272 277 276 272 273 272 273 277 282 285 281 281 291 282 282 283 285 300 309 309 303 317
226 238 248 251 248 238 246 258 267 275 272 270 272 273 273 271 285 279 276 273 265 295 283 279 280 274 287 306 310 309 302 291
238 245 244 252 241 237 245 260 270 268 265 277 280 270 271 278 279 271 272 254 266 284 271 267 283 295 292 298 295 302 300 278
Height
5841 5842 5842 5841 5841 5840 5839 5838 5836 5837 5835 5833 5833 5832 5829 5827 5825 5823 5821 5819 5817 5814 5812 5809 5806 5803 5800 5798 5795 5793 5791 5788
5833 5832 5836 5836 5836 5836 5834 5832 5830 5828 5826 5826 5825 5824 5822 5820 5819 5817 5815 5813 5811 5808 5805 5803 5800 5798 5795 5793 5790 5788 5785 5782
5828 5826 5827 5829 5828 5828 5827 5824 5823 5822 5819 5819 5819 5818 5815 5814 5813 5812 5809 5807 5806 5802 5800 5798 5795 5792 5790 5787 5784 5781 5779 5775
5820 5821 5824 5822 5820 5821 5820 5819 5817 5814 5813 5812 5813 5811 5809 5807 5807 5805 5801 5800 5800 5797 5793 5792 5790 5786 5784 5781 5778 5775 5772 5769
5812 5816 5817 5816 5817 5815 5813 5812 5807 5806 5806 5806 5805 5803 5801 5801 5800 5798 5797 5792 5793 5790 5788 5785 5781 5777 5776 5775 5772 5768 5765 5761
5804 5806 5807 5810 5807 5805 5805 5803 5800 5800 5799 5799 5797 5795 5794 5793 5793 5791 5790 5786 5784 5782 5781 5778 5774 5769 5769 5768 5764 5761 5757 5753
5794 5796 5796 5795 5795 5796 5796 5795 5795 5793 5791 5790 5788 5787 5786 5786 5785 5784 5781 5780 5778 5776 5774 5771 5769 5766 5763 5761 5757 5753 5750 5746
5784 5784 5786 5787 5787 5787 5789 5788 5786 5783 5783 5781 5780 5780 5780 5780 5778 5775 5774 5773 5770 5769 5767 5765 5763 5760 5756 5753 5750 5746 5742 5738
5774 5775 5776 5778 5778 5779 5779 5776 5775 5774 5773 5773 5773 5772 5772 5770 5769 5767 5767 5765 5764 5763 5761 5760 5755 5753 5750 5746 5743 5739 5735 5731
5764 5765 5767 5768 5768 5769 5768 5769 5767 5766 5766 5766 5765 5763 5762 5760 5760 5759 5759 5758 5756 5757 5754 5752 5749 5747 5743 5739 5735 5731 5727 5724
5755 5756 5757 5758 5759 5760 5760 5760 5760 5759 5758 5757 5755 5755 5754 5753 5753 5753 5752 5752 5750 5749 5749 5747 5744 5740 5736 5732 5728 5725 5720 5717
5746 5746 5748 5751 5751 5751 5753 5753 5752 5750 5749 5748 5747 5747 5746 5746 5745 5746 5747 5745 5744 5744 5743 5741 5737 5733 5729 5725 5723 5719 5715 5712
5737 5739 5742 5743 5744 5744 5745 5744 5742 5741 5741 5741 5741 5741 5740 5741 5741 5741 5741 5740 5738 5739 5737 5734 5729 5726 5722 5721 5717 5714 5710 5706
5732 5734 5736 5736 5737 5737 5737 5736 5735 5735 5736 5736 5735 5735 5735 5736 5736 5736 5735 5734 5732 5732 5729 5726 5723 5720 5718 5714 5712 5709 5706 5701
5725 5729 5730 5731 5732 5731 5730 5729 5729 5730 5730 5730 5731 5730 5730 5730 5730 5729 5730 5729 5727 5726 5723 5720 5717 5714 5712 5710 5707 5706 5702 5697
5722 5723 5724 5725 5726 5725 5725 5724 5724 5725 5725 5725 5725 5726 5725 5724 5725 5724 5722 5722 5721 5720 5716 5713 5711 5709 5707 5706 5705 5702 5698 5695
5715 5718 5720 5720 5720 5721 5721 5720 5721 5721 5721 5721 5721 5721 5721 5719 5718 5717 5716 5716 5714 5712 5710 5708 5706 5705 5704 5703 5701 5698 5695 5693
5710 5713 5715 5715 5716 5716 5716 5716 5717 5717 5716 5716 5716 5716 5715 5714 5713 5712 5711 5710 5709 5707 5705 5704 5703 5702 5701 5700 5697 5694 5693 5690
5706 5709 5711 5712 5711 5711 5712 5713 5713 5713 5713 5713 5712 5711 5710 5709 5708 5707 5707 5706 5705 5703 5702 5701 5700 5699 5698 5696 5694 5692 5690 5689
5703 5706 5707 5707 5707 5708 5709 5710 5710 5710 5710 5710 5709 5707 5706 5705 5704 5704 5704 5703 5702 5701 5699 5699 5698 5696 5695 5693 5691 5690 5689 5689